This is the latest recevied weather packets stored in our database for station/object S57D-6. If no packets are shown the sender has not sent any weather packets the latest 10 day(s).
| Time | Temp. | Humidity | Pressure | Rain* | Wind** | Luminosity | Snow |
|---|---|---|---|---|---|---|---|
| 1777546105 | 13.89° C | 41% | 1025.1 hPa | 0 mm | - | - | - |
| 1777545807 | 13.89° C | 40% | 1025.3 hPa | 0 mm | - | - | - |
| 1777545505 | 13.89° C | 42% | 1025.4 hPa | 0 mm | - | - | - |
| 1777545205 | 13.89° C | 43% | 1025.3 hPa | 0 mm | - | - | - |
| 1777544904 | 13.89° C | 40% | 1025.5 hPa | 0 mm | - | - | - |
| 1777544303 | 13.33° C | 42% | 1025.6 hPa | 0 mm | - | - | - |
| 1777543703 | 13.33° C | 42% | 1025.8 hPa | 0 mm | - | - | - |
| 1777543404 | 12.78° C | 43% | 1025.8 hPa | 0 mm | - | - | - |
| 1777543102 | 12.78° C | 43% | 1025.8 hPa | 0 mm | - | - | - |
| 1777542804 | 12.78° C | 43% | 1025.9 hPa | 0 mm | - | - | - |
| 1777542502 | 12.78° C | 44% | 1025.8 hPa | 0 mm | - | - | - |
| 1777542204 | 12.78° C | 44% | 1025.9 hPa | 0 mm | - | - | - |
| 1777541901 | 12.78° C | 42% | 1025.8 hPa | 0 mm | - | - | - |
| 1777541602 | 12.78° C | 43% | 1025.9 hPa | 0 mm | - | - | - |
| 1777541301 | 12.22° C | 44% | 1026 hPa | 0 mm | - | - | - |
| 1777540579 | 11.67° C | 44% | 1026 hPa | 0 mm | - | - | - |
| 1777540280 | 11.67° C | 43% | 1026.1 hPa | 0 mm | - | - | - |
| 1777539979 | 12.22° C | 43% | 1026.1 hPa | 0 mm | - | - | - |
| 1777539679 | 11.67° C | 45% | 1026.1 hPa | 0 mm | - | - | - |
| 1777539378 | 11.67° C | 43% | 1026 hPa | 0 mm | - | - | - |
| 1777539079 | 12.22° C | 43% | 1026.1 hPa | 0 mm | - | - | - |
| 1777538776 | 12.22° C | 45% | 1026.1 hPa | 0 mm | - | - | - |
| 1777538477 | 11.67° C | 45% | 1026.1 hPa | 0 mm | - | - | - |
| 1777537934 | 11.11° C | 44% | 1026.1 hPa | 0 mm | - | - | - |
| 1777537333 | 11.11° C | 46% | 1026.1 hPa | 0 mm | - | - | - |
* Rain latest hour (hover to see other rain measurements)
** Current wind speed in m/s (hover to see current wind gust speed)